Voltar ao catálogo

STARLINK-31965

AtivoComunicaçõesVLEO
NORAD 59888·PAYLOAD·🇺🇸 United States

Lançado May 28, 2024 de Cape Canaveral Space Force Station

Loading…

Próximas Passagens (próximas 24 horas)

TLE

AtualizadoSource: CelesTrak SupGP

Época: Sep 14, 2026, 22:38 UTC

1 59888C 24100D   26257.94354167 -.00022966  00000+0 -83198-3 0  2571
2 59888  43.0012 136.7821 0001283 267.7439 272.2632 15.27584345    19

Acompanhe STARLINK-31965 em tempo real com AllMySat

Download on the App Store